GFSGBSN_sfc_rhum_297.txt.gz
RH
63 61 62 63 63 63 64 64 64 65 66 67 68 68 69 70 72 73 74 77 78 80 82 81 78 75 78 59 31 18 70 66 50 20 14 11 11 11 10 12 14 16 13 13 12 14 15
63 63 63 63 63 64 64 64 65 66 66 67 69 69 70 72 73 75 77 80 82 83 83 81 77 74 80 28 10 24 46 42 22 16 14 10 8 10 12 13 13 13 12 11 11 11 11
63 63 63 63 63 63 64 64 65 66 66 67 69 72 72 74 76 78 79 83 85 85 84 81 78 74 91 23 20 32 24 27 23 18 18 15 12 12 13 13 11 12 12 11 12 11 11
64 64 63 63 63 63 63 63 64 66 67 67 68 72 78 80 82 84 85 87 85 84 83 76 79 72 67 36 37 34 22 18 20 20 15 13 14 14 13 13 13 13 15 12 10 12 14
64 63 62 63 63 63 63 63 64 66 68 69 72 76 79 80 83 85 87 85 81 85 80 78 79 82 46 34 35 29 24 15 19 17 15 9 13 15 15 15 15 17 12 16 10 14 39
64 63 63 63 63 64 63 63 65 67 69 73 75 77 79 81 83 85 86 74 75 79 79 74 67 70 37 22 34 29 33 16 14 18 13 14 17 16 17 15 14 17 16 17 16 13 43
64 64 63 63 63 64 64 64 65 72 73 74 76 78 79 81 82 85 69 55 59 60 63 77 55 51 43 44 37 32 29 20 12 15 19 16 14 17 16 18 16 15 16 15 15 13 12
65 64 64 64 64 65 65 65 68 74 76 77 78 79 80 82 81 78 59 59 57 60 94 61 62 60 50 44 48 28 19 19 18 17 17 18 18 16 17 17 16 16 16 16 15 14 12
65 65 65 64 64 65 66 67 70 74 76 77 78 79 80 82 81 72 75 58 52 67 92 66 60 56 42 42 46 36 18 18 17 19 17 17 16 17 17 19 19 19 18 18 11 14 12
65 65 64 64 64 65 66 68 68 74 77 77 78 79 80 81 66 78 52 52 57 70 91 48 55 45 40 42 44 29 18 15 18 18 19 15 15 19 18 18 17 22 17 16 16 17 16
64 64 64 64 64 65 70 71 72 76 77 77 78 79 79 78 86 70 53 56 60 90 73 36 34 31 31 42 24 26 24 21 22 20 18 17 19 20 20 17 17 17 19 18 18 18 18
64 64 64 64 64 67 71 74 77 77 77 77 78 79 72 70 82 68 52 66 91 84 80 45 31 33 35 33 33 32 29 28 27 21 20 17 16 14 12 18 16 18 18 19 20 20 21
64 64 64 64 65 66 68 74 77 77 77 78 79 76 70 70 56 51 66 86 82 95 39 44 44 38 40 42 41 40 41 43 42 35 32 23 21 17 16 17 18 16 20 22 20 22 19
64 64 65 66 66 67 68 75 76 77 77 78 77 71 73 65 53 69 83 76 92 51 47 37 43 41 44 40 43 35 40 43 36 47 39 30 28 20 17 17 18 19 18 24 21 23 17
64 64 66 67 67 67 68 75 76 77 77 78 72 79 71 50 64 81 80 94 64 43 36 46 47 89 76 57 49 40 38 42 39 42 55 53 28 40 29 20 15 21 22 19 29 29 20
65 66 67 68 68 68 72 75 76 77 78 75 85 82 52 55 71 77 76 70 40 35 38 40 67 64 88 89 84 53 43 36 46 42 46 47 48 43 36 28 27 20 18 25 31 28 23
66 69 70 69 69 69 70 73 75 76 77 68 81 56 43 59 66 57 93 66 41 34 36 66 73 79 80 91 92 90 88 42 39 43 40 44 60 44 41 45 42 26 24 31 25 28 20
69 71 71 70 69 70 69 68 73 76 75 75 83 77 45 64 66 75 90 65 48 41 38 36 37 43 56 57 67 90 90 65 43 41 45 43 60 53 55 41 35 38 45 44 25 32 26
72 72 72 70 70 70 69 68 71 74 71 89 85 81 65 62 98 97 60 55 47 51 48 42 46 39 39 50 73 50 53 39 42 44 50 39 55 57 53 47 41 48 44 41 48 54 36
73 74 73 71 70 70 69 69 70 70 66 81 75 96 75 68 70 64 71 59 55 47 50 47 46 41 41 43 44 53 48 40 39 40 46 41 47 60 67 60 41 51 41 35 43 56 54
74 74 74 71 71 70 70 69 71 71 67 69 88 94 86 98 91 67 55 60 57 56 53 50 50 53 53 50 46 48 44 40 34 42 38 40 37 40 35 30 28 28 28 28 41 43 50
75 76 72 71 71 70 69 70 72 73 67 82 95 98 67 70 66 62 60 62 64 62 64 61 60 57 46 52 50 55 46 40 39 37 38 40 40 38 32 31 33 32 28 31 37 39 38
75 74 71 70 71 71 70 71 72 72 64 90 91 90 79 75 66 64 65 60 65 65 49 50 56 60 49 46 48 46 46 46 45 49 45 43 44 46 41 40 31 35 33 30 30 43 34
77 74 72 70 72 72 72 73 73 72 75 84 85 96 90 86 68 59 57 61 66 64 67 54 52 59 44 47 46 42 43 44 44 45 46 44 46 37 51 42 63 35 50 49 38 62 55
76 76 74 72 73 73 74 74 74 72 72 92 96 99 98 93 66 60 56 59 58 58 63 56 48 49 54 46 44 48 50 40 33 32 51 47 42 57 74 54 33 44 52 55 60 73 77
78 76 75 75 75 75 75 74 74 73 73 94 91 97 99 98 78 53 59 59 72 67 69 58 52 56 52 46 65 88 69 42 43 34 41 47 47 52 62 76 76 45 48 44 48 61 65
79 78 77 76 76 76 76 75 75 74 73 91 93 94 100 99 75 66 77 72 63 71 84 65 60 60 53 57 94 80 62 39 50 40 45 61 60 72 65 76 50 50 38 43 68 65 60
81 79 78 78 78 78 78 76 76 76 75 87 96 95 98 99 81 70 64 72 70 76 87 59 77 62 62 86 78 77 67 46 47 36 32 35 64 73 63 77 79 46 37 57 58 69 52
82 81 80 80 80 80 79 79 76 77 76 78 99 87 94 100 93 75 71 67 65 66 80 82 87 83 70 85 87 85 84 70 46 57 32 55 35 57 61 46 40 40 40 34 43 34 39

GFSGBSN_sfc_rhum_300.txt.gz
RH
63 63 64 64 63 63 63 64 65 66 67 67 67 68 68 70 72 74 76 77 79 80 81 80 76 76 59 35 14 10 66 57 30 15 7 7 7 6 7 5 6 10 6 7 7 10 10
63 63 63 63 63 63 64 64 65 66 66 66 68 69 70 72 74 76 78 81 82 82 80 79 78 77 51 28 5 10 20 21 15 11 9 8 6 6 5 5 6 7 6 6 7 9 10
62 62 62 63 64 64 63 64 65 66 66 66 67 70 72 74 76 79 81 84 84 83 82 83 77 68 58 19 9 15 21 17 12 9 10 7 5 6 6 7 7 6 9 7 8 8 9
62 63 63 63 63 64 63 64 66 66 66 67 68 73 78 79 81 84 84 84 81 82 80 73 78 65 50 18 16 14 15 14 14 10 9 7 7 6 8 8 8 7 8 7 6 7 7
63 63 63 63 64 64 64 65 66 67 68 69 73 77 80 81 83 84 86 82 75 82 76 78 63 59 32 25 21 11 9 12 13 12 13 8 11 10 11 9 8 9 6 8 5 6 6
64 63 63 63 64 64 65 66 67 68 71 74 76 79 80 82 83 83 85 70 69 77 62 55 55 63 31 14 21 22 12 11 13 14 14 12 10 11 9 8 8 8 8 7 7 4 8
64 64 63 64 64 64 66 66 67 73 75 75 77 79 80 82 81 84 55 24 26 36 33 33 32 42 31 26 23 21 21 11 12 14 13 12 11 12 9 9 6 6 7 6 5 9 9
64 64 63 64 65 65 66 66 69 75 75 75 78 79 80 82 82 75 39 38 46 48 64 38 33 34 31 28 39 20 20 11 15 15 11 13 15 8 7 8 9 8 8 8 7 8 11
64 64 64 64 65 66 66 67 71 76 77 77 78 79 80 81 79 49 46 40 32 44 78 35 34 37 30 26 27 22 19 10 14 13 12 14 8 7 10 11 12 10 10 9 8 7 8
64 64 64 65 65 66 66 68 69 75 77 77 78 79 80 80 52 41 35 33 39 60 61 25 34 32 26 29 33 17 17 11 11 13 11 13 9 9 12 10 10 13 9 8 9 9 7
64 64 64 65 65 67 70 71 75 77 77 77 78 79 76 70 52 39 36 37 49 79 70 28 26 20 20 31 26 23 18 16 14 12 13 13 11 13 12 9 10 8 9 9 9 9 12
64 63 66 67 66 70 72 75 77 77 77 78 78 75 72 41 40 34 38 51 78 74 64 34 31 40 27 25 27 24 23 18 17 13 13 9 9 9 9 9 10 10 12 12 14 13 19
64 65 69 65 65 69 72 76 77 77 77 78 77 71 46 37 49 42 55 60 70 84 30 35 40 51 37 34 31 28 28 32 26 26 20 12 12 9 10 11 12 12 16 17 15 16 13
64 68 65 67 68 68 73 76 76 77 77 78 75 67 55 36 46 56 63 51 84 40 36 29 38 63 89 64 43 29 33 36 31 34 24 18 20 14 12 10 13 15 14 16 18 14 9
64 66 69 68 69 68 72 76 76 77 77 77 67 47 41 51 56 60 42 84 56 40 36 57 39 64 78 82 79 33 34 40 35 35 46 33 19 13 16 10 9 14 14 9 19 22 13
66 70 70 69 69 69 73 75 76 77 77 73 44 38 36 60 61 40 43 58 39 30 29 45 58 64 72 81 85 76 62 63 62 39 32 40 40 25 19 19 14 13 10 20 21 21 16
70 72 71 70 69 70 71 73 76 77 75 65 41 25 40 58 42 37 80 50 39 28 26 34 40 43 49 70 84 89 91 86 83 70 31 32 49 36 30 21 14 16 15 16 15 16 14
72 73 73 70 69 70 70 69 75 77 73 49 36 62 40 48 57 52 77 46 42 33 29 30 34 34 38 43 54 83 88 71 45 85 84 44 47 47 34 31 26 25 16 17 21 21 18
73 74 74 71 69 70 70 70 73 75 67 44 43 39 35 40 90 88 43 37 38 40 38 38 39 35 33 37 52 47 45 37 34 47 77 76 65 52 47 40 32 35 32 30 32 35 22
74 74 75 70 70 71 70 70 71 71 64 42 45 92 51 40 39 42 41 41 38 35 40 36 38 34 36 36 34 39 38 32 30 31 43 42 88 88 74 52 34 43 34 28 34 31 22
74 75 74 71 70 72 70 71 72 70 63 42 54 75 58 82 74 40 37 38 39 42 37 36 37 38 40 41 37 37 35 33 27 35 32 37 39 45 63 60 41 30 28 27 33 34 36
74 76 73 72 70 72 70 71 72 72 60 47 86 82 49 42 42 39 43 43 40 43 41 41 38 37 37 40 38 45 38 34 35 29 35 34 40 33 30 29 35 42 34 21 24 29 32
73 74 76 73 71 71 71 72 73 73 56 56 53 60 61 55 42 45 43 41 44 44 37 36 40 38 35 38 41 39 37 37 36 38 38 36 35 34 37 28 28 35 28 33 23 22 26
74 75 75 72 71 71 72 73 73 74 67 56 63 77 83 69 42 43 42 40 43 42 48 40 38 37 32 37 36 30 28 29 31 33 33 35 36 31 40 31 54 30 36 35 28 32 36
75 76 75 73 73 73 74 74 73 73 72 79 80 92 95 82 46 43 39 40 39 38 40 40 38 34 40 39 38 37 39 31 26 26 31 35 32 46 62 39 22 20 35 43 39 40 43
77 79 75 75 75 75 76 76 75 74 73 84 69 81 99 95 53 39 46 43 49 46 41 38 34 36 40 37 46 74 58 31 33 27 24 31 37 41 49 58 57 34 37 37 39 35 49
78 77 77 77 77 77 77 77 76 75 74 85 86 82 99 98 55 50 58 51 46 54 63 40 46 44 44 53 80 71 53 28 38 30 28 37 39 55 48 58 32 22 34 35 50 53 50
78 77 77 78 78 78 79 78 78 78 75 87 96 85 99 100 73 53 50 62 54 58 78 52 64 42 56 70 60 57 53 34 32 26 27 26 54 53 46 58 60 23 35 41 56 51 40
82 81 80 79 80 81 80 80 73 75 77 80 98 87 94 100 97 61 55 57 62 60 74 69 66 56 58 70 58 57 58 49 38 43 24 41 30 44 49 36 27 30 33 31 34 31 31

GFSGBSN_sfc_rhum_303.txt.gz
RH
63 63 64 64 64 64 64 65 66 66 66 67 68 68 69 72 73 74 76 78 78 78 78 78 77 76 63 30 20 15 68 62 29 16 9 6 6 6 6 4 4 5 5 5 4 4 7
63 63 63 64 64 64 65 66 66 66 67 67 68 69 72 73 75 76 77 80 82 79 77 80 78 75 51 28 7 5 9 18 12 12 9 5 5 4 5 4 4 4 4 5 4 5 6
63 63 63 64 64 65 65 67 67 67 68 68 68 72 75 76 78 79 79 82 83 81 83 82 77 61 42 25 8 7 8 11 9 9 7 5 4 5 5 6 4 4 5 5 5 5 5
63 63 63 64 65 65 66 67 67 67 68 69 70 76 80 81 82 83 83 82 82 81 78 73 78 50 38 14 12 12 9 11 9 7 6 6 5 5 6 5 5 5 6 6 5 5 6
63 64 64 64 65 65 67 66 68 67 69 71 75 78 81 82 82 83 83 78 76 79 72 74 55 49 33 24 14 10 10 10 9 10 9 6 7 7 6 6 7 7 5 7 5 4 5
63 64 64 65 65 66 66 66 69 70 72 75 77 78 81 82 81 82 81 77 66 75 59 41 37 50 31 15 15 15 12 8 9 10 12 12 9 10 7 8 9 7 6 4 6 4 5
64 64 64 65 65 66 66 67 68 75 75 74 76 79 81 82 78 80 53 18 23 26 25 24 15 15 13 10 10 17 12 10 9 11 14 13 10 11 8 8 6 4 5 5 3 3 5
64 65 65 66 66 67 67 67 71 76 76 75 79 80 80 79 76 79 42 31 34 37 49 26 23 22 20 19 22 17 14 15 12 14 12 12 12 8 6 6 7 6 6 6 4 4 6
65 65 66 67 67 67 68 68 73 76 78 78 79 80 78 79 76 46 30 30 27 40 54 28 25 28 23 20 24 20 14 18 11 14 12 12 10 7 7 7 7 8 8 7 5 4 6
65 66 67 67 67 67 69 69 71 77 77 78 79 80 79 76 49 31 26 28 33 52 49 23 24 24 24 25 25 15 12 16 15 10 12 12 7 8 8 8 7 11 6 5 5 6 8
65 68 67 67 68 69 74 76 77 77 77 78 78 78 74 73 40 30 34 36 43 67 64 22 19 16 36 29 22 20 12 15 21 11 12 13 10 9 9 8 7 9 7 7 7 8 8
65 67 67 68 68 73 75 77 77 77 77 78 77 72 72 39 36 34 36 49 64 76 61 24 20 35 56 44 27 18 17 17 15 13 10 10 7 8 9 6 8 7 7 9 9 8 12
66 68 69 68 69 72 75 77 77 77 77 76 76 72 56 31 46 40 50 54 62 80 24 30 36 40 47 74 51 23 24 28 29 32 23 11 10 8 8 9 8 7 11 14 12 12 12
66 70 70 69 68 72 76 77 77 77 77 74 75 73 45 31 41 49 57 32 81 34 32 24 31 32 51 70 62 47 28 31 29 35 32 18 17 10 8 9 10 10 11 15 20 14 9
68 70 71 70 68 70 76 77 77 78 77 72 70 34 36 48 53 50 34 86 53 33 25 28 24 40 41 43 66 74 58 53 45 49 65 42 20 8 8 8 7 11 12 9 13 11 11
69 72 72 71 68 70 76 76 77 78 76 71 38 26 32 54 58 39 36 51 36 25 23 24 33 30 42 43 61 68 82 78 66 56 60 41 43 18 9 9 8 10 8 15 15 21 18
71 73 73 71 69 71 74 74 77 78 74 68 33 20 39 49 41 31 80 42 32 22 22 29 32 30 30 37 50 68 79 79 58 71 62 54 47 38 19 17 13 10 13 14 12 15 18
72 74 74 70 70 71 71 70 76 78 73 46 31 57 35 36 51 42 66 31 37 26 24 27 28 29 30 28 35 47 48 41 33 65 90 88 76 59 58 22 19 17 14 14 18 18 16
72 74 75 70 70 72 72 71 74 76 72 48 34 32 31 32 91 95 32 27 26 29 30 32 32 29 28 30 35 30 30 26 24 32 70 82 85 74 38 34 24 24 20 23 22 17 18
73 74 76 72 71 72 72 71 72 73 73 52 39 96 47 36 31 35 36 33 30 25 28 28 30 26 30 32 26 30 30 26 24 27 33 45 89 92 84 86 71 39 29 24 27 34 24
74 74 76 74 73 72 71 72 73 73 73 46 44 71 44 94 81 37 37 33 32 36 29 26 30 30 33 36 32 32 30 30 26 40 28 34 56 73 73 63 53 63 38 25 26 27 30
74 74 75 77 74 72 71 72 73 74 74 36 79 75 47 40 36 36 38 39 35 33 34 33 36 32 31 34 34 41 36 35 36 28 33 32 37 33 36 47 49 57 40 34 24 23 26
74 73 74 75 72 71 71 72 73 74 68 50 42 42 52 54 36 40 40 37 36 35 32 29 33 35 34 31 33 33 33 34 34 38 39 37 33 34 37 37 40 60 54 35 32 21 24
72 74 74 74 72 72 72 73 74 73 74 58 50 55 81 69 38 38 36 34 34 33 39 33 33 37 30 26 30 28 26 24 25 28 28 37 35 31 39 28 57 37 29 34 40 31 24
73 75 75 74 74 74 74 75 76 75 73 67 76 80 93 82 44 42 40 37 36 34 35 34 30 28 30 37 39 35 38 31 26 20 23 28 34 41 54 38 25 19 24 34 37 36 37
73 76 75 73 75 76 76 76 76 76 74 73 84 89 100 100 53 36 45 44 48 40 40 37 27 32 36 34 51 81 60 34 29 22 19 23 32 39 42 51 50 36 31 30 32 31 39
78 77 75 75 76 77 77 77 77 76 76 81 82 82 100 100 56 52 72 61 51 53 60 42 40 50 42 50 81 74 52 29 38 31 27 29 31 47 43 51 32 18 25 29 46 64 47
80 79 78 78 78 78 79 79 78 78 74 83 79 78 98 100 87 62 56 64 63 65 87 55 62 47 42 73 64 57 49 36 32 25 25 25 41 45 42 56 59 18 25 37 53 46 37
84 82 82 81 81 80 80 80 78 75 73 74 85 67 77 100 94 64 55 50 56 57 86 81 73 57 61 73 58 63 66 59 53 60 29 37 26 46 45 41 27 29 29 28 32 33 34

GFSGBSN_sfc_rhum_309.txt.gz
RH
65 65 66 66 66 67 67 68 68 71 73 72 72 73 74 75 75 73 77 80 79 78 77 78 83 78 82 72 54 23 70 68 47 24 18 17 15 13 11 12 11 10 8 7 7 7 8
66 65 66 66 66 68 68 69 69 71 71 72 75 75 75 76 75 75 78 81 81 80 78 77 81 76 85 57 18 18 19 41 26 26 22 19 17 12 11 10 11 10 8 6 6 6 6
66 66 66 67 68 68 69 70 69 68 70 71 74 78 78 78 76 76 80 80 79 78 77 76 79 72 70 61 28 26 21 18 18 18 25 18 16 15 12 10 9 8 9 8 6 5 7
66 66 66 67 68 70 72 72 69 69 71 72 75 79 84 82 81 79 79 78 77 78 78 77 75 76 78 31 32 18 14 15 13 12 14 15 14 14 14 12 10 9 10 10 7 6 6
66 66 66 67 68 70 72 73 72 70 72 75 78 81 83 81 79 78 79 76 77 77 76 77 84 88 59 27 19 18 19 17 16 13 14 10 13 17 16 17 15 11 11 10 9 7 7
69 67 67 68 68 68 68 69 74 76 79 80 80 81 82 79 77 78 80 74 61 66 38 49 44 50 28 25 23 20 18 22 19 17 19 18 17 21 20 15 16 14 13 12 11 7 7
67 65 67 68 68 69 69 69 72 78 79 80 80 81 81 79 77 79 80 42 48 46 48 46 34 29 23 24 19 21 26 32 30 31 28 25 23 26 20 16 10 11 12 11 10 7 7
66 71 68 68 68 70 70 69 73 78 79 79 80 81 81 78 78 78 63 52 53 59 76 43 22 19 19 21 26 29 26 40 41 50 45 30 30 19 17 14 13 13 12 11 9 6 7
69 69 67 68 69 70 71 70 74 78 79 78 79 80 80 79 79 67 50 52 49 60 86 42 14 20 22 18 26 35 33 44 51 50 49 44 28 16 18 17 16 13 13 11 9 8 7
69 69 68 69 70 71 72 72 74 78 78 78 78 80 80 80 65 52 57 48 56 65 95 21 17 18 22 20 35 26 29 33 40 46 47 35 23 19 19 20 15 17 10 10 9 11 14
68 67 69 70 70 74 79 79 78 79 78 77 78 79 80 82 76 62 51 50 60 78 81 18 17 12 18 24 26 32 30 32 46 45 36 29 28 18 18 19 16 18 12 11 10 11 13
66 68 68 71 71 77 80 80 79 78 77 77 78 79 80 59 63 54 50 60 85 92 64 23 18 20 22 22 26 30 45 40 38 49 37 39 35 33 15 14 14 13 14 12 12 12 19
69 70 72 71 71 76 80 80 79 77 77 76 78 80 80 53 63 49 60 83 83 79 22 25 26 20 22 28 29 37 50 84 80 86 70 53 33 31 17 15 15 15 16 22 22 21 21
68 71 73 72 70 75 80 80 79 78 77 77 79 79 75 54 49 54 81 57 73 32 30 22 23 22 33 27 30 35 52 40 39 55 91 78 64 35 28 19 15 16 16 26 34 34 18
69 72 73 73 71 74 80 80 79 78 78 78 75 73 53 45 52 68 59 85 63 31 25 28 25 33 37 30 35 39 61 36 29 35 89 90 62 42 33 35 27 22 18 15 26 29 32
71 72 73 73 72 76 79 79 79 78 79 79 79 78 44 52 54 54 66 50 36 22 24 26 37 30 42 38 48 51 50 41 35 32 48 70 87 44 40 33 32 40 21 28 29 34 35
72 74 73 74 75 77 78 79 79 79 80 74 85 66 56 48 60 62 85 46 30 20 22 31 35 32 34 39 40 50 56 41 34 44 38 65 74 61 46 53 53 45 60 50 36 29 32
71 74 73 74 74 74 77 79 79 79 80 73 93 86 58 61 69 90 87 34 36 26 25 28 32 30 35 34 37 42 43 39 31 43 66 63 89 79 62 45 42 45 59 58 64 57 42
70 73 75 74 75 76 78 79 80 80 78 92 93 73 56 62 94 93 48 34 28 28 29 32 33 32 34 38 46 36 35 31 30 37 57 63 84 80 49 59 56 70 58 59 57 53 54
71 72 75 75 76 73 77 78 79 81 79 91 87 95 88 75 75 62 58 47 40 30 30 28 30 32 36 41 37 43 40 35 34 32 39 47 78 86 83 80 86 85 68 70 66 72 60
73 72 74 76 76 73 75 74 78 81 79 86 84 88 72 95 88 65 54 48 44 43 34 32 40 38 41 54 49 55 43 40 36 37 40 51 63 58 55 43 38 36 42 60 86 58 59
73 73 74 75 76 73 73 74 77 79 79 70 94 94 81 84 64 59 61 56 46 40 42 44 47 43 42 54 52 55 46 47 49 41 48 46 64 52 56 44 39 47 39 35 48 52 39
72 73 73 74 75 73 74 75 76 75 77 95 89 80 89 75 66 69 65 51 50 47 46 39 44 49 52 48 45 44 45 44 44 50 52 55 56 58 58 46 44 55 53 48 52 84 76
73 72 72 74 74 74 75 76 77 77 77 96 93 96 99 93 76 64 56 53 53 52 62 53 48 53 49 39 43 44 39 39 38 39 37 52 54 54 59 51 83 39 23 35 40 55 84
76 74 74 76 76 76 77 77 78 77 75 96 94 99 100 98 76 69 61 62 63 66 66 57 50 46 56 65 71 69 62 57 39 31 32 35 46 61 80 59 47 36 34 45 51 48 57
77 77 77 79 79 79 79 78 78 78 76 93 90 93 100 99 90 69 80 78 86 79 74 64 54 46 56 81 96 96 91 60 54 44 31 34 42 61 73 71 78 44 34 28 34 43 77
80 81 81 81 81 80 80 79 79 78 77 91 96 88 100 100 82 84 95 91 95 90 94 71 66 73 68 88 94 91 75 59 74 63 56 51 58 70 72 84 54 52 46 32 53 78 77
84 83 83 83 82 81 80 80 79 79 78 88 95 85 96 100 92 82 79 95 88 83 93 79 90 88 86 96 85 89 86 67 66 56 62 84 92 95 84 83 84 47 43 86 86 70 76
88 88 87 85 83 82 81 80 79 77 77 78 98 78 88 100 92 71 74 72 77 76 92 91 97 97 92 97 88 92 90 75 74 89 50 58 43 75 68 73 46 40 49 87 86 86 82

GFSGBSN_sfc_rhum_315.txt.gz
RH
64 66 68 68 69 70 70 71 70 71 72 73 74 75 76 76 76 77 82 84 82 79 78 78 78 77 81 30 30 20 52 43 29 42 45 40 34 30 24 19 16 19 20 16 15 14 13
64 67 68 69 70 70 71 71 70 71 72 73 74 76 77 77 77 80 83 83 83 83 80 78 78 76 73 36 25 29 33 27 26 30 28 29 28 23 24 19 17 15 14 14 13 12 13
64 67 68 69 70 71 71 71 70 71 72 73 75 80 82 80 81 83 82 81 83 85 83 76 78 74 48 36 35 42 27 32 29 32 31 26 24 30 30 26 20 16 18 14 12 15 15
66 67 68 69 70 70 71 71 70 71 74 74 75 80 84 84 83 83 82 80 82 82 80 78 76 84 59 39 37 24 25 22 20 31 29 26 20 27 30 27 25 25 24 25 13 13 13
68 67 68 69 70 70 72 72 72 72 74 76 77 80 84 84 84 84 80 77 78 68 79 82 81 85 36 26 21 23 26 25 23 30 30 23 24 29 31 39 41 34 35 23 17 16 13
69 66 68 69 70 70 71 71 75 75 76 79 80 81 84 84 85 85 78 75 66 59 65 61 54 48 24 20 22 26 24 20 35 33 37 37 35 34 39 38 42 34 40 33 24 16 13
69 69 68 68 69 70 71 71 72 78 79 78 79 82 85 85 85 87 65 67 74 57 68 59 40 35 25 16 23 30 22 24 31 46 59 51 59 48 33 31 25 27 30 32 28 13 12
69 69 67 69 69 71 71 71 74 79 80 80 83 84 85 85 86 79 53 76 75 70 90 63 41 24 15 17 28 28 19 30 44 56 50 63 73 46 33 36 35 34 32 31 26 19 13
68 69 67 69 70 71 72 72 74 78 81 82 83 85 86 86 82 62 68 58 58 70 90 57 18 18 18 19 32 30 21 27 58 59 55 65 54 41 44 49 47 41 40 35 30 25 15
70 72 67 70 71 72 74 74 74 76 81 82 83 85 86 88 55 70 60 59 64 73 78 28 22 20 18 20 24 26 19 32 38 61 42 56 43 42 48 55 45 55 34 30 27 26 23
72 71 70 71 72 74 76 77 77 78 81 82 84 85 86 82 60 65 47 60 72 70 70 26 24 17 20 24 25 23 20 27 35 38 46 52 51 42 56 50 44 48 34 32 27 26 22
71 69 70 72 74 76 79 81 81 81 82 82 84 84 84 66 76 62 58 81 49 56 63 34 26 28 29 24 27 23 27 24 28 35 30 32 30 41 65 60 46 33 36 33 28 26 32
72 69 68 73 74 76 79 81 81 81 82 82 84 85 82 66 52 49 84 55 60 79 32 35 36 32 31 35 32 28 42 41 44 57 52 35 35 68 84 79 60 50 48 49 46 37 36
68 70 71 73 75 76 80 81 81 81 82 84 83 82 62 53 52 81 54 44 71 37 40 30 32 33 44 38 39 36 50 47 37 37 63 55 56 82 77 94 96 87 50 50 51 45 36
67 72 72 73 75 77 81 81 81 81 82 82 79 79 55 44 56 59 54 84 60 40 33 36 36 46 50 44 48 45 57 50 43 39 62 75 58 39 65 70 60 64 48 39 41 40 39
70 71 73 74 76 78 81 81 81 81 82 80 94 73 49 54 68 54 59 53 43 32 32 35 47 44 54 50 56 50 66 52 49 40 36 53 70 44 36 57 50 61 54 61 60 43 42
72 71 73 74 78 79 81 81 81 81 82 80 88 64 51 57 62 58 84 54 40 29 31 40 45 46 50 51 53 59 65 52 49 46 44 58 66 59 39 92 95 77 78 71 68 70 43
74 72 73 74 75 76 80 82 82 81 81 87 89 79 61 65 62 91 91 56 44 39 35 39 42 48 56 51 52 57 56 57 48 48 68 74 70 64 55 95 61 50 88 83 78 82 73
74 74 73 75 75 77 80 81 82 81 81 98 95 92 66 66 94 95 72 48 46 46 47 48 51 52 55 58 64 55 57 48 44 48 61 66 82 73 42 61 52 55 48 84 75 80 72
75 75 74 75 76 75 77 80 82 82 81 91 88 93 83 84 88 79 76 61 60 52 52 51 50 56 64 64 56 61 69 60 57 51 49 52 87 84 84 77 69 65 51 41 84 90 85
75 75 75 75 76 75 76 76 81 82 79 76 92 93 88 95 92 79 66 63 66 74 58 56 59 71 71 70 64 70 66 61 48 46 51 53 73 62 63 54 52 52 49 60 94 93 92
76 76 76 76 77 75 76 77 79 81 75 94 98 98 96 95 83 70 72 74 74 70 62 64 80 71 68 74 77 86 66 59 56 44 52 59 68 56 59 50 48 49 51 54 84 92 94
76 76 75 75 78 76 77 78 78 78 83 98 96 93 84 85 87 82 80 77 76 72 66 67 75 76 74 68 63 63 61 63 66 71 71 65 70 66 68 53 54 66 78 64 62 95 96
78 77 77 75 78 78 78 79 78 78 86 97 97 93 93 92 95 80 76 79 78 82 86 72 72 79 60 53 63 63 62 60 62 64 65 62 63 59 66 59 88 60 46 57 92 82 88
78 77 77 78 80 80 80 80 79 78 80 97 98 96 99 97 88 78 78 86 79 72 82 77 72 58 61 74 78 70 58 56 45 49 50 40 61 67 94 80 52 61 59 60 71 86 88
79 78 80 80 82 82 82 81 80 78 76 88 98 97 94 99 90 78 80 83 95 92 90 68 61 71 76 85 91 99 94 80 67 54 32 35 43 70 70 78 95 75 47 46 50 89 78
81 81 82 83 82 82 82 81 80 79 76 84 97 94 99 99 92 90 92 94 92 86 94 86 78 80 78 91 100 99 71 57 67 66 66 54 55 85 82 94 88 76 48 48 70 84 82
83 83 84 85 83 82 82 82 81 79 76 82 79 93 97 100 92 85 84 94 90 94 98 96 82 82 92 93 98 82 92 74 72 37 48 66 96 91 80 96 96 74 52 79 78 81 83
85 84 86 86 85 84 84 82 80 77 74 78 97 85 93 98 94 88 80 80 84 89 97 94 87 90 94 97 95 99 95 86 50 65 44 78 77 93 84 70 50 60 63 61 77 86 74

GFSGBSN_sfc_rhum_318.txt.gz
RH
66 68 69 69 70 70 71 71 71 72 74 74 76 76 77 76 77 78 84 83 82 82 81 80 77 78 68 35 34 28 50 41 28 30 33 41 38 37 32 28 21 20 21 18 19 19 21
66 67 68 70 70 71 72 72 72 72 74 74 76 77 78 78 78 79 84 80 84 85 82 78 78 76 35 32 28 35 26 23 20 36 36 34 33 29 30 27 24 21 19 18 16 14 15
65 68 69 70 71 71 72 72 72 72 74 75 77 79 81 80 81 83 83 80 84 85 81 74 78 72 24 33 38 34 20 23 20 32 40 31 28 30 31 33 26 23 27 25 23 18 15
66 67 68 70 70 71 72 72 72 73 74 76 78 80 86 86 87 86 83 80 82 76 80 79 75 78 50 36 35 24 17 15 16 27 34 28 31 32 31 30 31 34 35 40 20 20 16
70 67 68 69 70 71 71 72 72 74 76 77 79 82 86 87 88 86 78 79 71 79 82 82 62 48 29 26 23 22 18 19 21 31 29 24 34 34 39 43 45 46 35 33 29 16 15
70 66 68 69 70 71 71 72 73 75 78 79 79 82 86 87 88 87 75 74 67 63 57 55 25 30 18 18 19 21 17 18 34 35 40 40 46 43 46 46 45 41 45 45 32 25 18
69 66 69 69 70 71 71 72 72 79 79 79 80 82 86 86 87 87 72 67 72 56 70 50 44 23 20 14 23 23 18 24 36 44 59 52 72 70 47 40 35 34 33 33 29 24 23
68 68 70 70 70 72 72 72 73 80 79 80 83 86 86 84 87 70 61 78 80 78 79 62 41 21 17 16 24 24 18 28 51 69 48 52 79 56 44 45 52 46 45 42 31 27 28
70 69 70 70 71 72 73 72 73 79 82 84 86 87 86 86 74 66 68 61 60 76 82 37 20 21 20 20 24 30 22 29 60 54 41 55 48 40 33 41 54 59 57 46 39 34 30
69 67 70 71 72 73 74 74 74 78 82 84 86 87 85 82 56 73 67 62 71 75 49 30 27 23 21 22 27 22 21 30 34 46 41 52 44 30 33 42 52 71 50 48 46 42 47
71 68 71 72 72 74 75 75 76 77 83 83 85 86 85 72 66 54 52 65 78 60 62 28 28 20 22 27 28 22 22 31 38 35 33 33 35 44 66 86 83 83 57 56 48 47 43
71 72 72 72 73 74 77 80 80 82 83 82 84 86 83 64 70 62 66 81 44 53 59 39 30 29 34 30 31 26 32 27 30 35 28 28 28 65 83 66 58 50 56 56 50 49 62
70 72 72 72 73 75 77 80 82 82 83 82 84 85 67 61 64 55 84 53 55 78 33 34 39 34 38 40 37 30 46 48 51 56 47 34 30 50 48 82 54 55 76 82 86 78 67
66 69 72 73 74 77 79 82 82 82 82 82 84 78 58 53 63 79 53 43 73 39 40 32 35 38 47 44 44 39 55 59 47 46 63 64 53 66 41 87 98 87 78 89 72 60 46
70 71 73 73 75 77 81 81 82 81 81 83 76 76 52 47 62 61 52 84 61 43 36 42 40 51 56 49 52 50 58 59 52 46 70 82 71 42 43 91 97 77 94 78 95 55 50
72 72 73 73 76 79 82 82 82 82 82 79 89 65 47 51 70 59 60 53 40 36 35 40 47 47 62 60 63 56 66 58 60 47 48 56 73 45 40 58 77 86 79 91 92 76 70
73 73 73 73 76 80 82 82 82 82 83 76 74 63 48 56 63 60 88 54 41 37 38 42 48 53 62 63 62 65 68 56 60 63 52 55 70 54 46 86 95 79 80 79 91 94 79
74 74 74 75 75 78 82 82 82 82 82 85 83 79 42 69 72 91 92 61 48 48 45 48 52 59 68 63 69 64 61 59 60 59 81 65 73 68 52 54 83 53 85 86 90 83 74
75 74 74 75 75 79 81 82 83 82 78 94 92 85 62 67 92 95 68 56 55 59 57 59 61 62 67 68 74 61 59 58 59 59 74 75 77 78 48 70 72 55 51 62 89 94 88
76 76 75 76 77 76 79 81 83 81 76 87 83 91 82 84 88 72 71 63 67 62 62 58 61 66 70 68 59 62 61 58 51 52 54 53 86 84 90 76 68 69 58 52 92 92 88
76 76 76 77 79 76 76 79 83 82 75 77 92 95 91 97 92 78 67 69 73 73 64 61 64 68 82 76 72 67 61 59 53 50 49 58 79 68 65 58 55 54 56 67 96 97 95
77 77 78 77 78 76 77 77 82 83 73 96 98 97 90 94 82 72 75 78 78 76 73 68 79 80 80 84 73 86 74 73 73 56 68 64 77 60 63 52 51 54 63 87 76 93 88
78 77 78 78 79 77 77 78 79 80 81 98 90 83 86 85 90 84 86 84 78 79 64 71 78 84 79 71 68 69 71 74 76 83 82 84 89 76 73 52 48 72 86 92 86 93 94
78 77 77 78 79 78 79 79 79 79 85 97 99 95 97 93 92 83 80 81 81 82 85 72 76 85 67 63 70 68 65 53 65 66 58 58 59 86 71 60 83 77 51 86 92 79 92
79 78 78 79 80 81 81 80 79 79 79 97 98 97 94 100 84 71 76 78 80 76 82 78 68 66 78 76 77 56 59 56 42 38 36 35 44 65 96 79 52 67 69 72 87 88 88
79 79 79 81 82 82 82 81 80 79 76 95 98 97 97 95 87 76 84 87 97 96 89 70 70 73 76 88 89 99 84 51 44 57 26 24 34 64 82 87 92 82 68 48 83 83 63
81 81 82 83 83 82 82 82 80 79 76 85 97 94 99 99 88 91 97 90 93 92 99 89 76 86 77 90 98 98 77 45 68 54 37 42 39 89 73 91 90 65 63 43 75 91 69
82 83 83 84 85 84 83 83 81 78 75 80 92 90 99 100 94 86 84 93 93 96 99 89 79 74 90 95 92 94 86 60 65 42 42 60 93 89 80 93 94 66 60 81 87 65 69
84 84 84 86 86 85 84 84 82 76 74 84 97 91 97 98 93 90 88 85 84 88 94 95 85 91 96 96 97 99 94 89 61 75 40 71 67 90 88 72 62 53 56 44 54 65 58